Regional Weather Roundup
Issued by NWS

Home | Current Version | Previous Version | Text Only | Print | Product List | Glossary On
Versions: 1 2 3 4 5 6 7 8 9 10 11 12 13 14 15 16 17 18 19 20 21 22 23 24 25 26 27 28 29 30 31 32 33 34 35 36 37 38 39 40 41 42 43 44 45 46 47 48 49 50
000
ASUS45 KBOU 011710
RWRCO

WEATHER ROUNDUP FOR COLORADO
NATIONAL WEATHER SERVICE DENVER/BOULDER CO
1100 AM MDT SAT OCT 01 2016

NOTE: "FAIR" INDICATES FEW OR NO CLOUDS BELOW 12000 FEET WITH NO
SIGNIFICANT WEATHER AND/OR OBSTRUCTIONS TO VISIBILITY.

COZ001>005-013-030-031-011800-
...NORTHWEST COLORADO...

CITY           SKY/WX    TMP DP  RH WIND       PRES   REMARKS
CRAIG          FAIR      62  44  51 CALM      30.25F
HAYDEN         FAIR      57  39  51 E6        30.26F
MEEKER         FAIR      62  45  53 CALM      30.26F
MOUNT WERNER   NOT AVBL
STEAMBOAT SPGS FAIR      55  43  65 CALM      30.28S
WALDEN           N/A     54  39  58 S7        30.34F
$$

COZ006>008-011-011800-
...WEST CENTRAL VALLEYS...

CITY           SKY/WX    TMP DP  RH WIND       PRES   REMARKS
GRAND JUNCTION FAIR      64  47  53 VRB3      30.21S
MONTROSE       FAIR      63  43  48 CALM      30.25F
EAGLE          SUNNY     55  43  62 CALM      30.31F
RIFLE          FAIR      60  45  57 CALM      30.24F
DELTA          NOT AVBL
NUCLA          FAIR      61  45  55 CALM      30.31S
$$

COZ017>023-064>068-011800-
...SOUTHWEST COLORADO...

CITY           SKY/WX    TMP DP  RH WIND       PRES   REMARKS
DURANGO        FAIR      61  42  49 VRB5      30.30F
CORTEZ         FAIR      65  48  54 CALM      30.27S
PAGOSA SPRINGS FAIR      59  39  47 SW3       30.34F
TELLURIDE      FAIR      56  37  49 CALM      30.42F
WOLF CREEK PAS PTSUNNY   39  34  81 W7        30.57S
$$

COZ009-010-012-014-032>034-037-058>063-011800-
...CENTRAL COLORADO...

CITY           SKY/WX    TMP DP  RH WIND       PRES   REMARKS
ASPEN          FAIR      60  39  45 VRB5      30.32F
BUENA VISTA    FAIR      59  38  45 CALM      30.32S
COPPER MTN     FAIR      45  32  61 CALM      30.53S
BERTHOUD PASS  PTSUNNY   39  30  70 N12G20    30.55S
COTTONWOOD PAS FAIR      57  37  47 SE6       30.41F
GUNNISON       FAIR      52  39  62 CALM      30.36F
KREMMLING      CLOUDY    41  37  87 CALM      30.37F
LEADVILLE      FAIR      54  31  41 VRB3      30.40F
MONARCH PASS   FAIR      41  34  75 W18       30.64S
SALIDA         FAIR      62  43  49 CALM      30.37F
SUNLIGHT       FAIR      45  39  81 CALM      30.51S
WILKERSON PASS FAIR      45  36  70 W6        30.51S
$$

COZ069>075-011800-
...SAN LUIS VALLEY/SANGRE DE CRISTO MOUNTAINS...

CITY           SKY/WX    TMP DP  RH WIND       PRES   REMARKS
ALAMOSA        FAIR      58  42  55 VRB5      30.32F
LA VETA PASS   FAIR      54  37  54 MISG      30.43S
SAGUACHE       FAIR      59  39  47 S5        30.34F
$$

COZ035-036-038>040-011800-
...NORTHERN COLORADO FRONT RANGE...

CITY           SKY/WX    TMP DP  RH WIND       PRES   REMARKS
DENVER INTL AP FAIR      71  42  35 VRB3      30.16S
DMNS CITY PARK   N/A     73  41  31 E2        30.15S
AURORA         MOSUNNY   70  43  37 W1        30.17F
FRONT RANGE AP MOSUNNY   72  43  35 NE3       30.17F
ERIE MUNI ARPT FAIR      73  39  29 SE8       30.14F
BOULDER MUN AP FAIR      72  41  33 E3        30.14F
CENTENNIAL     FAIR      70  40  33 N3        30.18S
BROOMFIELD     MOSUNNY   72  41  33 E5        30.19R
FORT COLLINS   FAIR      70  45  40 S9        30.13F
LONGMONT       FAIR      72  42  33 CALM      30.15S
$$

COZ041-046-047-076>085-087-088-011800-
...PIKES PEAK/PALMER DIVIDE AND SOUTHERN FOOTHILLS...

CITY           SKY/WX    TMP DP  RH WIND       PRES   REMARKS
COLO. SPRINGS  FAIR      71  40  32 E8        30.20F
A. F. ACADEMY  FAIR      68  39  34 SW5       30.21F
SCHRIEVER AFB  NOT AVBL
ELLICOTT       NOT AVBL
FALCON         FAIR      69  37  30 E5        30.25S
FORT CARSON    NOT AVBL
LIMON          FAIR      73  42  32 N6        30.15F
MONUMENT HILL  FAIR      64  37  36 CALM      30.25F
TRINIDAD       FAIR      71  42  35 VRB3      30.18F
$$

COZ042>045-048>051-090-091-011800-
...NORTHEAST COLORADO...

CITY           SKY/WX    TMP DP  RH WIND       PRES   REMARKS
GREELEY ARPT   FAIR      70  46  43 SW7       30.13F
AKRON          FAIR      71  46  40 CALM      30.12F
BURLINGTON     FAIR      69  48  47 E7        30.12F
WRAY           NOT AVBL
STERLING       FAIR      70  50  49 S5        30.08S
HOLYOKE        FAIR      73  50  43 S9        30.10S
FORT MORGAN    FAIR      71  45  38 SW3       30.12F
$$

COZ086-089-092>099-011800-
...SOUTHEAST COLORADO...

CITY           SKY/WX    TMP DP  RH WIND       PRES   REMARKS
PUEBLO         FAIR      69  47  45 CALM      30.13F
LA JUNTA       FAIR      68  49  50 NW5       30.12F
LAMAR          FAIR      66  50  56 VRB5      30.09F
SPRINGFIELD      N/A     70  50  49 N6        30.11S
$$



USA.gov is the U.S. government's official web portal to all federal, state and local government web resources and services.